Accueil
METAR-TAF:

METAR-TAF

Aéroports :

Aéroport du Kruger Mpumalanga

Parc national Kruger, Afrique du Sud

latitude: 25-23-00S, longitude: 31-06-20E, altitude: 862 m

Observation

Le bulletin a été fait il y a 53 minutes, à 10:00 UTC
Vent 4 kt de sud-est
Température 23°C
Humidité 22%
Pression 1028 hPa
Visibilité 10 km ou plus
pas de nuages en-dessous de 1500 mètres et pas de cumulonimbus.

METAR: FAKN 131000Z 13004KT CAVOK 23/00 Q1028 NOSIG

Heure: 12:53 (10:53 UTC)

Prévision

Le bulletin a été fait il y a 1 heure et 53 minutes, à 09:00 UTC
Prévision valable du 13 à 10 UTC au 13 à 18 UTC
Vent 3 kt de direction variable
Visibilité 10 km ou plus
pas de nuages en-dessous de 1500 mètres et pas de cumulonimbus.

TAF: FAKN 130900Z 1310/1318 VRB03KT CAVOK TX22/1312Z TN14/1318Z

Observations et prévisions météorologiques de plus de 4000 aéroports (messages METAR et TAF).

Les stations disponibles sont représentées par des disques jaunes et rouges sur la carte.

Passer la souris dessus pour voir le nom de la station.

Cliquer dessus pour voir les observations et prévisions météorologiques.

Pour changer de carte: cliquez sur les boutons verts avec une croix noire pour zoomer, sur le bouton vert avec un tiret pour effectuer un zoom arrière, ou sur les flèches vertes pour les cartes adjacentes.


METAR-TAF: